Temperature
13 13 14 14 15 15 15 15 15 15 15 15 15 15 15 15 15 15 15 15 15 15 15 16 16 16 16 16 16 17 17 17 17 17 17 17 17 17 17 17 17 16 17
12 13 14 14 14 14 15 15 15 15 15 15 15 15 15 15 15 15 15 15 15 15 15 15 15 16 16 16 16 16 16 17 17 17 17 17 17 17 17 17 17 16 16
12 13 13 13 14 14 14 14 14 15 15 15 15 15 15 15 15 15 15 15 15 15 15 15 15 15 16 16 16 16 16 16 17 17 17 17 16 17 17 17 17 17 17
11 12 13 13 13 14 14 14 14 14 15 15 15 15 15 15 15 15 15 15 15 15 15 15 15 15 15 15 16 16 16 16 16 17 17 16 16 16 17 17 17 17 17
11 11 12 13 13 13 14 14 14 14 14 14 14 14 14 14 14 14 14 14 14 15 14 15 15 15 15 15 15 15 16 16 16 16 16 16 16 16 16 17 17 17 17
10 10 11 12 12 13 13 13 13 13 14 14 14 14 14 14 14 14 14 14 14 14 14 14 14 15 15 15 15 15 15 16 16 16 16 16 15 16 16 16 17 17 17
10 10 11 11 12 12 12 12 13 13 13 13 13 13 13 14 14 14 14 14 14 14 14 14 14 14 14 15 15 15 15 15 15 16 16 16 15 16 16 16 17 17 17
10 10 11 11 12 12 12 12 12 12 12 12 13 13 13 13 13 13 13 13 14 14 14 14 14 14 14 14 15 15 15 15 15 15 15 15 15 16 16 16 17 17 17
10 10 11 11 11 11 11 11 12 12 12 12 12 12 12 12 12 12 13 13 13 13 13 13 14 14 14 14 14 14 15 15 15 15 15 15 15 16 16 16 16 16 17
9 10 10 10 11 11 11 11 11 11 11 11 11 12 12 12 12 12 12 12 12 12 13 13 13 13 13 14 14 14 14 14 15 15 15 15 15 15 16 16 16 16 16
9 9 10 10 10 10 10 10 10 10 10 10 10 11 11 11 12 11 12 12 12 12 12 12 12 13 13 13 13 13 14 14 14 15 15 15 15 15 15 15 16 16 16
8 8 8 9 9 9 9 9 9 8 8 8 8 8 9 9 10 10 11 11 11 12 12 12 12 12 12 13 13 13 13 14 14 14 14 15 15 15 15 15 15 16 16
6 7 7 7 8 8 8 8 7 6 6 6 5 5 6 7 7 8 9 9 10 10 11 11 12 12 12 12 12 13 13 13 13 14 14 14 15 15 15 15 15 15 16
6 6 6 6 6 6 6 6 5 4 4 3 3 3 3 4 5 5 6 6 7 7 8 9 10 11 11 12 12 12 12 13 13 13 14 14 14 14 14 15 15 15 15
5 5 5 5 4 4 4 4 3 2 2 2 2 2 2 2 2 3 4 4 4 4 6 7 8 9 10 11 11 12 12 12 13 13 13 13 14 14 14 14 15 15 15
4 4 3 3 3 3 3 2 1 1 1 1 1 0 0 1 1 1 2 2 2 3 4 4 5 6 7 9 10 10 11 12 12 12 13 13 13 13 13 14 14 15 15
3 2 2 2 2 2 2 1 1 0 -0 -0 -0 -1 -1 -1 -1 -1 -0 0 0 1 2 2 3 4 5 6 8 9 10 11 11 12 12 13 13 13 13 13 14 14 15
2 2 1 1 1 1 1 0 0 -1 -1 -1 -2 -2 -2 -2 -2 -2 -2 -2 -1 -1 -0 0 1 2 3 5 6 8 9 10 11 11 12 12 12 12 12 12 13 13 14
1 1 0 0 -0 -0 -0 -0 -1 -1 -2 -2 -3 -3 -3 -3 -3 -3 -3 -3 -3 -2 -2 -2 -1 -0 1 2 4 5 7 9 10 10 11 11 12 12 12 12 12 12 13
0 0 -0 -1 -1 -1 -1 -1 -2 -2 -3 -4 -4 -4 -4 -4 -4 -4 -4 -4 -4 -4 -3 -3 -3 -2 -1 -0 1 3 5 7 9 10 11 11 11 12 12 12 12 12 12
-0 -1 -1 -2 -2 -3 -3 -3 -3 -4 -4 -4 -4 -5 -5 -5 -5 -5 -5 -5 -5 -5 -5 -4 -4 -3 -3 -2 -0 1 4 6 8 9 10 10 11 11 11 11 12 12 12
-1 -2 -2 -3 -4 -4 -4 -5 -5 -5 -5 -5 -5 -6 -6 -6 -6 -6 -6 -6 -6 -6 -5 -5 -5 -4 -3 -3 -2 -1 1 4 7 8 9 9 10 10 11 11 11 11 12
-2 -2 -3 -4 -5 -5 -5 -6 -6 -6 -6 -6 -6 -6 -6 -6 -6 -6 -7 -7 -6 -6 -6 -6 -5 -5 -4 -3 -2 -1 0 2 2 7 8 8 9 10 10 11 11 11 11
-2 -3 -4 -5 -5 -6 -6 -6 -7 -7 -7 -7 -7 -7 -7 -7 -7 -7 -7 -7 -7 -7 -6 -6 -6 -5 -5 -4 -3 -2 -1 -0 0 2 6 7 7 8 9 10 10 10 11
-3 -4 -4 -5 -6 -6 -7 -7 -7 -8 -8 -8 -8 -8 -8 -8 -8 -8 -8 -8 -8 -8 -7 -7 -7 -6 -5 -5 -4 -3 -2 -1 -0 1 2 4 6 7 8 9 10 10 10
-3 -4 -5 -6 -6 -7 -7 -7 -8 -8 -8 -8 -8 -8 -8 -8 -8 -9 -9 -9 -9 -8 -8 -8 -7 -7 -6 -5 -5 -4 -3 -2 -1 -0 1 2 3 5 7 8 9 9 10
Wind_Speed
13 23 29 30 27 24 22 21 20 19 18 18 18 18 18 17 16 16 14 13 12 11 10 9 9 9 8 8 7 6 5 5 4 4 3 2 2 1 1 1 4 0 7
14 22 28 30 29 29 27 25 24 22 21 20 19 18 18 17 17 16 16 14 14 12 11 10 10 10 10 9 8 7 6 5 4 4 4 4 4 3 2 1 4 6 7
16 22 26 29 29 29 29 28 27 26 25 24 22 21 20 18 17 17 16 15 15 14 12 11 11 11 10 10 9 8 8 7 6 5 6 7 8 7 5 2 1 3 5
16 21 25 27 29 29 29 28 28 27 26 26 25 24 23 21 20 18 17 16 15 15 13 12 12 11 11 10 10 9 9 8 8 8 9 10 9 9 7 5 2 2 3
16 20 24 26 27 28 29 29 28 28 27 27 26 25 24 22 21 20 19 17 16 15 14 13 12 12 11 10 10 10 10 10 9 10 12 11 7 10 9 7 5 4 3
17 20 23 26 27 28 28 28 28 28 28 27 28 27 26 24 23 21 19 19 18 17 15 14 13 12 11 10 10 10 11 11 10 11 14 12 7 11 9 8 6 5 5
15 21 24 28 28 27 27 28 27 28 28 27 28 29 28 26 24 23 22 21 20 19 17 15 14 13 12 11 10 10 10 10 11 12 13 11 6 12 10 9 8 6 6
18 22 24 28 29 29 27 28 27 27 28 27 28 30 29 27 25 25 24 24 23 22 20 17 15 14 13 12 11 10 9 10 11 12 13 11 10 13 12 10 9 9 8
21 22 24 26 28 29 27 27 27 26 27 27 27 30 29 27 26 26 26 26 25 24 23 20 18 16 15 14 13 11 10 11 11 11 13 11 14 15 13 11 10 11 10
19 21 24 25 27 27 26 26 27 26 26 27 27 29 29 27 26 26 27 27 27 26 25 23 21 19 17 15 15 13 12 11 12 14 14 12 13 16 15 12 11 12 13
15 17 23 24 25 26 25 25 25 24 25 25 24 27 26 24 24 23 27 28 28 28 27 25 25 23 20 16 16 17 15 11 13 14 14 15 14 16 15 14 12 12 14
16 15 21 22 24 25 24 23 22 21 22 22 22 23 23 22 22 23 25 26 27 28 26 27 28 24 19 14 15 15 11 13 15 14 14 17 17 17 16 14 13 13 14
13 14 17 22 24 24 23 22 21 20 20 21 22 23 22 21 20 21 21 21 23 23 22 24 23 21 19 16 12 11 11 12 11 12 12 18 19 17 16 15 14 14 15
13 14 15 22 23 24 24 21 20 19 19 19 21 22 21 17 18 19 18 19 19 18 18 19 18 20 21 20 16 11 10 9 11 11 10 16 18 16 15 16 16 16 16
14 15 13 21 22 23 22 21 20 20 19 21 20 21 22 18 15 18 18 18 18 18 17 16 15 15 15 16 16 13 10 8 10 11 9 15 18 17 15 16 17 17 17
14 15 13 18 23 24 21 20 19 20 21 21 19 21 22 21 19 18 17 17 17 19 19 17 15 12 11 12 14 14 12 11 10 10 10 12 18 18 16 17 18 19 19
12 14 14 18 23 23 22 21 21 21 22 20 20 21 22 23 21 19 15 14 17 21 20 17 15 12 11 13 15 16 13 11 11 10 10 9 13 18 19 18 18 18 19
12 13 13 20 22 23 22 22 21 22 22 20 20 21 23 24 23 20 15 13 20 20 17 11 10 12 12 12 13 14 14 13 14 11 11 9 8 11 16 19 19 18 19
12 13 14 15 17 21 21 22 22 21 21 21 20 20 23 23 24 21 16 16 20 17 13 12 12 12 13 13 13 13 12 13 14 14 11 9 8 9 11 17 20 19 19
11 12 13 13 17 20 18 18 16 16 18 20 19 20 23 23 24 21 17 18 19 13 11 12 14 13 12 13 14 14 13 14 13 13 13 9 7 10 11 11 13 16 20
11 12 13 13 13 13 11 12 12 12 11 12 18 22 22 23 23 20 16 16 16 12 14 15 14 15 13 12 12 13 12 13 14 12 11 10 9 7 9 10 10 11 12
10 11 12 12 12 11 10 10 8 10 8 13 18 20 21 23 23 20 17 14 14 11 13 14 14 11 12 11 11 11 7 7 6 8 7 8 9 7 8 8 10 10 10
10 10 12 12 11 12 16 12 11 7 8 8 10 8 19 23 22 20 18 17 15 11 11 13 13 14 13 12 10 7 6 5 11 10 10 7 6 6 7 7 8 10 12
9 9 10 11 10 12 15 11 13 11 11 12 10 8 17 22 21 20 19 18 16 12 11 12 13 12 13 12 11 9 10 9 7 8 10 10 10 9 6 6 7 7 10
9 8 9 10 9 11 12 11 11 10 9 10 11 11 10 16 19 19 20 19 16 13 10 11 12 12 11 11 11 11 12 11 10 8 11 13 11 9 9 7 5 4 6
8 8 8 9 9 9 9 9 11 12 12 13 13 12 11 8 12 17 21 19 18 14 11 12 11 13 12 12 11 10 11 9 9 8 9 12 13 12 12 10 7 4 3
Wind_Direction
356 3 11 16 17 17 15 13 11 9 6 3 1 359 357 354 353 353 349 348 344 337 332 325 323 320 319 319 318 321 325 335 343 339 329 281 204 157 125 341 344 123 110
5 10 15 19 22 23 23 21 19 15 12 8 3 359 355 351 348 345 343 342 342 335 328 323 317 311 309 310 310 308 305 306 314 317 296 259 213 200 201 295 12 96 112
20 20 20 23 24 25 25 25 23 21 19 15 10 5 359 354 348 344 342 340 340 336 329 324 320 310 302 300 299 296 291 289 287 286 277 257 214 203 198 186 62 95 112
29 30 24 26 27 28 27 25 24 22 21 18 14 9 4 360 354 348 343 341 339 336 329 321 317 311 301 292 288 284 278 276 273 271 266 253 221 198 190 187 190 159 135
31 37 28 27 28 28 26 25 23 21 19 18 15 11 7 3 360 355 351 345 339 334 329 321 314 309 302 290 281 277 271 267 261 262 269 270 206 180 184 188 194 197 176
25 30 29 26 26 26 25 22 21 19 17 16 14 10 7 4 3 1 358 354 347 337 329 323 314 308 304 294 281 273 267 262 255 254 259 262 193 175 184 188 195 202 197
24 22 23 23 21 21 21 19 17 16 14 13 12 9 5 3 3 4 3 0 354 345 334 323 315 307 303 298 286 274 264 259 249 258 262 261 212 179 186 190 195 203 206
25 23 20 19 16 13 14 14 12 12 11 9 10 7 3 1 1 3 3 360 354 349 342 332 319 308 298 293 287 278 265 255 252 250 255 248 224 189 193 195 200 204 208
27 23 19 18 12 8 5 8 6 7 7 5 7 6 2 359 359 359 360 356 352 348 343 336 327 315 302 290 282 277 267 252 256 269 265 244 226 208 202 198 206 206 206
27 22 17 14 10 4 358 2 1 2 4 2 5 3 1 357 356 355 356 351 349 346 342 337 334 324 309 292 279 270 261 254 251 254 257 246 227 217 212 205 209 209 206
25 19 16 11 8 3 357 358 355 357 360 359 2 0 359 355 352 353 352 348 349 346 342 342 339 329 316 298 279 264 253 242 244 246 243 233 221 217 217 212 214 214 209
20 14 14 8 6 3 357 353 350 352 355 355 359 357 358 354 350 353 348 346 347 343 346 346 340 334 326 311 296 281 253 243 245 249 236 215 210 214 217 216 218 219 215
17 14 12 6 5 3 356 352 348 349 353 351 354 355 357 353 349 351 346 342 341 343 347 343 341 334 326 317 306 287 259 253 257 258 243 208 202 211 220 222 223 224 221
16 12 10 5 4 1 355 350 348 348 349 348 350 354 357 354 351 349 342 338 338 342 342 341 334 328 327 322 312 300 282 265 261 262 255 207 197 205 221 229 230 229 227
15 10 7 3 4 359 354 351 347 346 346 346 349 353 359 358 350 346 338 336 336 341 340 335 329 329 328 324 320 314 304 288 276 270 252 208 197 199 216 230 233 233 231
14 9 4 2 3 359 355 351 346 344 345 346 347 351 359 358 349 346 336 334 338 343 337 331 329 330 326 325 323 321 311 300 285 275 259 218 205 202 211 226 233 234 234
14 9 3 0 1 359 353 351 346 344 346 344 346 350 359 354 348 346 337 335 341 340 334 333 330 332 329 329 326 323 317 308 299 287 273 240 215 212 212 219 228 233 235
15 10 4 2 359 357 353 352 347 345 345 343 346 352 356 348 347 346 338 337 340 338 335 334 336 338 331 327 323 318 314 309 301 290 277 262 230 215 216 219 223 229 233
18 11 4 1 360 355 353 351 344 345 343 342 346 352 350 345 346 343 336 339 339 336 336 336 337 334 328 324 318 311 309 306 299 294 284 266 249 224 208 214 219 225 230
20 14 3 359 359 354 354 347 343 343 341 340 345 350 347 344 343 341 338 340 338 334 335 333 332 332 326 322 319 313 305 295 288 282 279 270 251 235 217 208 210 222 227
18 14 3 358 355 355 354 345 343 340 337 337 345 347 343 342 340 339 342 340 337 334 332 332 333 328 327 324 321 318 301 281 267 265 263 262 255 243 226 214 209 208 218
18 12 0 356 352 354 351 340 338 332 329 336 342 338 339 340 340 341 345 341 336 332 329 331 331 328 326 330 323 319 311 304 331 297 278 261 251 242 233 219 211 211 212
19 12 359 352 349 350 349 342 339 327 332 338 336 333 340 340 338 340 343 342 334 330 326 328 328 331 326 321 318 314 316 324 330 307 315 309 305 271 241 228 214 210 214
18 11 359 349 346 348 348 343 341 340 338 335 333 330 337 337 335 338 344 341 333 328 325 327 332 324 321 319 318 309 308 306 300 310 313 320 319 309 291 256 229 214 210
15 8 355 345 345 346 347 342 339 334 332 330 329 331 333 331 333 339 342 339 332 326 323 323 322 320 317 312 312 312 310 305 288 289 299 310 319 318 318 304 269 227 209
12 5 351 345 343 343 344 340 338 334 334 332 334 334 332 328 332 338 338 335 328 325 322 318 317 317 314 311 312 310 308 305 306 301 295 303 306 309 315 312 304 272 220
Height
1580 1576 1574 1572 1569 1567 1564 1562 1560 1559 1557 1555 1554 1553 1552 1551 1550 1549 1548 1548 1547 1547 1547 1546 1546 1545 1545 1545 1544 1544 1544 1544 1544 1544 1544 1545 1545 1545 1545 1545 1544 1545 1546
1582 1578 1575 1573 1570 1568 1566 1564 1562 1560 1558 1556 1555 1553 1552 1550 1549 1548 1547 1547 1546 1545 1545 1545 1544 1544 1544 1543 1543 1543 1543 1543 1543 1543 1544 1544 1544 1545 1545 1545 1545 1545 1546
1582 1578 1576 1574 1571 1569 1567 1565 1563 1561 1559 1557 1555 1553 1552 1550 1549 1548 1546 1546 1545 1544 1543 1543 1542 1542 1542 1541 1541 1541 1541 1541 1541 1542 1542 1543 1544 1544 1544 1545 1545 1545 1545
1584 1580 1577 1574 1572 1570 1567 1565 1563 1561 1559 1557 1555 1554 1552 1550 1548 1547 1546 1544 1543 1542 1541 1540 1540 1539 1539 1539 1539 1539 1539 1539 1540 1540 1541 1542 1543 1543 1544 1544 1544 1545 1545
1585 1581 1578 1575 1572 1570 1568 1565 1563 1561 1559 1557 1555 1553 1551 1550 1548 1546 1544 1543 1541 1540 1539 1538 1538 1537 1537 1536 1536 1536 1537 1537 1538 1539 1540 1540 1541 1542 1542 1543 1544 1544 1544
1586 1583 1579 1576 1573 1570 1568 1566 1563 1561 1559 1557 1554 1552 1550 1548 1546 1545 1543 1541 1540 1538 1537 1536 1535 1534 1534 1534 1534 1534 1534 1534 1535 1536 1538 1539 1539 1540 1541 1541 1542 1543 1543
1587 1584 1580 1577 1574 1571 1569 1566 1564 1561 1558 1556 1553 1551 1549 1547 1545 1543 1541 1539 1537 1536 1534 1533 1532 1532 1531 1531 1530 1531 1531 1532 1532 1533 1535 1536 1537 1537 1538 1539 1540 1541 1542
1587 1584 1581 1578 1575 1572 1570 1567 1564 1561 1558 1555 1553 1550 1548 1546 1543 1541 1538 1537 1535 1533 1532 1530 1529 1529 1528 1527 1527 1527 1528 1528 1529 1530 1531 1533 1534 1534 1536 1537 1538 1539 1540
1588 1584 1581 1579 1576 1573 1570 1567 1564 1561 1558 1555 1552 1549 1547 1544 1541 1539 1536 1534 1532 1530 1528 1527 1526 1525 1524 1524 1524 1524 1524 1524 1525 1527 1528 1529 1530 1531 1533 1534 1535 1536 1538
1588 1585 1582 1579 1576 1573 1570 1567 1564 1561 1557 1554 1550 1547 1544 1542 1539 1536 1534 1531 1529 1527 1525 1524 1522 1521 1520 1520 1520 1520 1520 1520 1521 1523 1524 1525 1526 1527 1529 1530 1532 1533 1535
1588 1585 1582 1579 1575 1572 1569 1566 1563 1559 1555 1552 1548 1544 1541 1538 1535 1533 1530 1528 1526 1524 1522 1520 1518 1517 1517 1516 1516 1516 1515 1516 1517 1518 1519 1520 1522 1523 1524 1526 1528 1530 1532
1588 1585 1582 1578 1575 1571 1568 1564 1560 1557 1553 1549 1545 1541 1538 1534 1531 1529 1526 1524 1522 1519 1517 1515 1514 1513 1512 1512 1511 1511 1511 1511 1512 1513 1514 1516 1517 1518 1520 1522 1524 1526 1528
1591 1587 1582 1578 1574 1570 1566 1562 1558 1555 1551 1547 1543 1539 1535 1531 1528 1524 1521 1519 1516 1514 1512 1510 1509 1509 1508 1507 1507 1507 1507 1507 1507 1508 1510 1510 1511 1513 1515 1517 1519 1521 1523
1591 1587 1583 1579 1574 1570 1566 1561 1557 1554 1550 1546 1542 1538 1533 1528 1525 1521 1518 1515 1512 1509 1507 1505 1504 1503 1502 1501 1502 1502 1502 1502 1502 1503 1504 1505 1506 1507 1509 1511 1513 1516 1518
1591 1587 1583 1578 1573 1569 1564 1560 1556 1553 1549 1545 1541 1537 1532 1527 1522 1518 1515 1512 1510 1506 1503 1501 1499 1497 1496 1496 1496 1496 1496 1496 1497 1498 1498 1499 1501 1502 1504 1505 1507 1510 1512
1592 1588 1583 1579 1574 1569 1564 1559 1555 1551 1548 1544 1540 1536 1531 1526 1521 1516 1512 1509 1507 1503 1500 1498 1495 1493 1491 1490 1489 1489 1490 1490 1491 1492 1493 1494 1495 1496 1498 1499 1501 1503 1506
1593 1588 1583 1578 1573 1568 1563 1558 1554 1550 1546 1542 1539 1535 1530 1524 1520 1515 1511 1507 1504 1500 1497 1494 1491 1489 1486 1485 1483 1483 1483 1484 1484 1485 1487 1488 1489 1490 1492 1493 1495 1497 1500
1593 1588 1583 1578 1572 1567 1562 1557 1552 1548 1545 1541 1537 1533 1527 1523 1518 1513 1509 1505 1501 1497 1494 1490 1487 1484 1482 1480 1478 1477 1476 1477 1477 1479 1480 1482 1483 1484 1486 1488 1489 1491 1494
1592 1587 1582 1576 1571 1565 1561 1556 1551 1547 1543 1539 1535 1530 1526 1521 1517 1512 1508 1503 1499 1495 1491 1488 1484 1481 1478 1475 1473 1471 1470 1469 1470 1471 1473 1475 1477 1479 1480 1482 1484 1486 1488
1592 1586 1581 1576 1570 1564 1559 1554 1549 1545 1541 1537 1533 1529 1524 1520 1515 1511 1506 1502 1498 1494 1490 1486 1482 1479 1476 1473 1469 1466 1464 1463 1463 1464 1466 1469 1471 1473 1475 1477 1479 1480 1482
1591 1585 1580 1574 1569 1563 1557 1551 1546 1542 1538 1535 1532 1527 1523 1518 1514 1510 1505 1501 1497 1493 1489 1485 1481 1477 1474 1471 1467 1461 1457 1457 1457 1458 1460 1462 1464 1467 1469 1471 1473 1475 1477
1590 1585 1579 1574 1568 1563 1558 1553 1548 1543 1538 1535 1530 1526 1521 1517 1513 1509 1504 1499 1495 1491 1487 1484 1480 1476 1473 1471 1468 1462 1457 1453 1452 1451 1453 1455 1458 1460 1463 1465 1467 1469 1471
1589 1584 1579 1573 1568 1562 1557 1552 1546 1541 1537 1532 1527 1523 1519 1515 1511 1507 1503 1498 1494 1490 1486 1483 1479 1475 1471 1469 1468 1467 1462 1456 1450 1446 1446 1448 1450 1453 1456 1458 1460 1462 1465
1589 1583 1578 1573 1567 1562 1556 1551 1545 1540 1535 1531 1526 1521 1517 1513 1509 1505 1501 1496 1492 1488 1484 1481 1477 1474 1470 1467 1465 1464 1462 1459 1456 1448 1441 1441 1443 1445 1448 1451 1454 1456 1458
1588 1583 1577 1572 1567 1561 1556 1550 1545 1540 1535 1530 1525 1520 1515 1510 1507 1503 1498 1493 1489 1485 1481 1478 1475 1471 1468 1466 1463 1460 1458 1456 1454 1451 1445 1437 1436 1438 1440 1443 1446 1449 1452
1587 1582 1576 1570 1565 1560 1554 1549 1544 1539 1533 1527 1522 1517 1512 1507 1504 1500 1495 1490 1486 1482 1478 1475 1471 1468 1465 1462 1460 1457 1455 1453 1450 1448 1445 1439 1434 1432 1434 1436 1439 1443 1446